Regional Weather Roundup
Issued by NWS Mt. Holly, NJ

Home | Current Version | Previous Version | Text Only | Print | Product List | Glossary On
Versions: 1 2 3 4 5 6 7 8 9 10 11 12 13 14 15 16 17 18 19 20 21 22 23 24 25 26 27 28 29 30 31 32 33 34 35 36 37 38 39 40 41 42 43 44 45 46 47 48 49 50
000
ASUS41 KPHI 281211
RWRPHI

REGIONAL WEATHER ROUNDUP
NATIONAL WEATHER SERVICE MOUNT HOLLY NJ
800 AM EDT TUE APR 28 2015

NOTE:  "FAIR" INDICATES FEW OR NO CLOUDS BELOW 12,000 FEET WITH NO
SIGNIFICANT WEATHER AND/OR OBSTRUCTIONS TO VISIBILITY.

 * = STATION DOES NOT REPORT PRECIPITATION (E.G. RAIN, SNOW, ETC.)
        OR FOG.

NJZ015>026-281300-
SOUTHERN NEW JERSEY

CITY           SKY/WX    TMP DP  RH WIND       PRES   REMARKS
POMONA         SUNNY     53  40  61 NW17      29.81R
6HR MIN TEMP:  48; 6HR MAX TEMP:  53;

RIO GRANDE*    SUNNY     52  39  62 NW8       29.80S
MILLVILLE      SUNNY     53  41  63 NW12      29.83R
WRIGHTSTOWN    SUNNY     52  41  64 NW12      29.79R
MOUNT HOLLY    SUNNY     52  40  63 NW10G17   29.82R
TRENTON        SUNNY     53  39  59 N15G21    29.81R
6HR MIN TEMP:  47; 6HR MAX TEMP:  53;


$$
NJZ001>014-281300-
NORTHERN NEW JERSEY

CITY           SKY/WX    TMP DP  RH WIND       PRES   REMARKS
SUSSEX         SUNNY     52  39  61 N7        29.82R
ANDOVER*         N/A     51  39  63 VRB6      29.82R
MORRISTOWN     SUNNY     52  39  62 NW10G17   29.81R
NEWARK         MOSUNNY   54  39  57 N14G21    29.80R
TETERBORO      SUNNY     53  37  54 N10       29.79R
CALDWELL       SUNNY     52  39  61 VRB6      29.81R
SOMERVILLE     SUNNY     54  38  54 N12G18    29.80R
ALLAIRE*       SUNNY     52  36  54 N10       29.79S
TOMS RIVER*    SUNNY     52  39  62 N15G22    29.80S

$$
PAZ043-044-047-054-055-060>062-066>071-281300-
EASTERN PENNSYLVANIA

CITY           SKY/WX    TMP DP  RH WIND       PRES   REMARKS
PHILADELPHIA   MOSUNNY   53  39  59 NW16      29.84R
6HR MIN TEMP:  51; 6HR MAX TEMP:  54;

NORTH PHILA    SUNNY     54  38  54 NW15      29.84R
BLUE BELL      SUNNY     52  41  66 NW6       29.83R
DOYLESTOWN     SUNNY     50  39  66 N13G21    29.82R
QUAKERTOWN*    SUNNY     50  39  66 N12       29.85R
POTTSTOWN      SUNNY     51  40  65 NW13      29.86R
LANCASTER      SUNNY     50  40  68 NW14      29.87R
COATESVILLE    SUNNY     50  39  66 NW10      29.86R
READING        SUNNY     52  40  63 N10       29.86R
6HR MIN TEMP:  47; 6HR MAX TEMP:  52;

ALLENTOWN      MOSUNNY   52  40  63 NW8       29.85R
6HR MIN TEMP:  47; 6HR MAX TEMP:  52;

MOUNT POCONO   PTSUNNY   44  37  76 NW12      29.82R
6HR MIN TEMP:  42; 6HR MAX TEMP:  44; 6HR PCP: TRACE;

HAZLETON       CLOUDY    45  37  76 NW8       29.89R
WILKES BARRE   CLOUDY    47  39  74 N8        29.87R

$$
DEZALL-MDZ008-012-015-019-020-281300-
DELAWARE AND EASTERN MARYLAND

CITY           SKY/WX    TMP DP  RH WIND       PRES   REMARKS
WILMINGTON     SUNNY     53  40  61 NW12G20   29.86R
6HR MIN TEMP:  48; 6HR MAX TEMP:  53; 6HR PCP: TRACE;

DOVER          SUNNY     52  42  67 NW15G21   29.81R
GEORGETOWN     SUNNY     51  39  63 VRB7      29.85R
6HR MIN TEMP:  47; 6HR MAX TEMP:  51;

EASTON         MOSUNNY   54  41  62 NW17G25   29.92R
ABERDEEN       SUNNY     54  37  54 N14       29.89R
PATUXENT       MOSUNNY   51  39  63 NW14      29.90R
OCEAN CITY     SUNNY     50  39  66 NW13      29.84R
WALLOPS ISLAND MOSUNNY   51  41  68 NW12      29.87R
CAMBRIDGE      SUNNY     54  41  62 NW12G18   29.88R
SALISBURY      SUNNY     51  39  63 NW12      29.86R

$$
PAZ001-021-NYZ056-072-MDZ011-DCZ001-281300-
OTHER NEARBY LOCATIONS

CITY           SKY/WX    TMP DP  RH WIND       PRES   REMARKS
HARRISBURG     MOSUNNY   51  37  58 NW14      29.90R
STATE COLLEGE  MOSUNNY   45  37  76 CALM      29.96R
WILLIAMSPORT   SUNNY     51  38  60 NW15      29.92R
BINGHAMTON     MOSUNNY   43  38  82 NW9       29.88R
NEW YORK CITY  SUNNY     52  36  54 N9        29.82R
BALTIMORE      MOSUNNY   52  38  58 NW13      29.89R
WASHINGTON DC  MOSUNNY   53  37  54 NW12      29.93R

$$



USA.gov is the U.S. government's official web portal to all federal, state and local government web resources and services.